QPF
0.01 0.01 0.01 0.01 0.02 0.02 0.02 0.03 0.02 0.02 0.02 0.02 0.02 0.02 0.02 0.01 0.01 0.01 0.01 0.01 0.00 0.00 0.00 0.00 0.00 0.00 0.00 0.00 0.00 0.00 0.00 0.00 0.00 0.00 0.00 0.00 0.00 0.00 0.00 0.00 0.00 0.00 0.00 0.00 0.00 0.00 0.00 0.00 0.00 0.00 0.00 0.01 0.01 0.06 0.12 0.14 0.16 0.17 0.17 0.17 0.19 0.20 0.21 0.22 0.15 0.11 0.11 0.14 0.15
0.01 0.01 0.01 0.01 0.01 0.02 0.02 0.02 0.02 0.02 0.02 0.02 0.02 0.02 0.02 0.02 0.01 0.01 0.01 0.00 0.00 0.00 0.00 0.00 0.00 0.00 0.00 0.00 0.00 0.00 0.00 0.00 0.00 0.00 0.00 0.00 0.00 0.00 0.00 0.00 0.00 0.00 0.00 0.00 0.00 0.00 0.00 0.00 0.00 0.00 0.01 0.01 0.01 0.03 0.08 0.15 0.17 0.18 0.19 0.21 0.22 0.22 0.22 0.24 0.22 0.18 0.14 0.12 0.13
0.01 0.01 0.01 0.01 0.02 0.02 0.03 0.03 0.03 0.03 0.02 0.02 0.02 0.02 0.02 0.02 0.02 0.02 0.01 0.01 0.01 0.00 0.00 0.00 0.00 0.00 0.00 0.00 0.00 0.00 0.00 0.00 0.00 0.00 0.00 0.00 0.00 0.00 0.00 0.00 0.00 0.00 0.00 0.00 0.00 0.00 0.00 0.00 0.01 0.01 0.01 0.01 0.01 0.03 0.07 0.14 0.16 0.18 0.20 0.22 0.23 0.23 0.23 0.24 0.22 0.22 0.21 0.20 0.16
0.01 0.01 0.01 0.02 0.02 0.02 0.02 0.03 0.03 0.03 0.02 0.02 0.02 0.02 0.02 0.02 0.02 0.02 0.01 0.01 0.01 0.01 0.00 0.00 0.00 0.00 0.00 0.00 0.00 0.00 0.00 0.00 0.00 0.00 0.00 0.00 0.00 0.00 0.00 0.00 0.00 0.00 0.00 0.01 0.02 0.02 0.02 0.02 0.03 0.02 0.02 0.02 0.02 0.03 0.05 0.09 0.14 0.17 0.18 0.17 0.19 0.22 0.24 0.24 0.22 0.23 0.26 0.28 0.24
0.01 0.01 0.01 0.02 0.02 0.02 0.02 0.03 0.03 0.03 0.03 0.03 0.03 0.03 0.03 0.03 0.03 0.02 0.02 0.01 0.01 0.01 0.01 0.00 0.00 0.00 0.00 0.00 0.00 0.00 0.00 0.00 0.00 0.00 0.00 0.00 0.00 0.00 0.00 0.00 0.00 0.00 0.00 0.00 0.01 0.02 0.03 0.04 0.06 0.05 0.03 0.03 0.02 0.03 0.05 0.08 0.14 0.16 0.17 0.18 0.18 0.21 0.23 0.24 0.26 0.27 0.28 0.29 0.27
0.01 0.01 0.01 0.02 0.02 0.02 0.02 0.03 0.03 0.03 0.03 0.03 0.04 0.04 0.04 0.04 0.04 0.03 0.03 0.03 0.03 0.02 0.01 0.01 0.01 0.01 0.01 0.00 0.00 0.00 0.00 0.00 0.00 0.00 0.00 0.00 0.00 0.00 0.00 0.00 0.00 0.00 0.00 0.00 0.00 0.01 0.02 0.04 0.06 0.07 0.06 0.05 0.04 0.05 0.06 0.09 0.11 0.14 0.17 0.18 0.17 0.19 0.21 0.25 0.29 0.29 0.27 0.27 0.25
0.02 0.02 0.02 0.02 0.02 0.02 0.02 0.03 0.03 0.03 0.04 0.04 0.04 0.04 0.04 0.03 0.03 0.03 0.03 0.03 0.03 0.02 0.02 0.01 0.02 0.02 0.01 0.01 0.01 0.00 0.00 0.00 0.00 0.00 0.00 0.00 0.00 0.00 0.00 0.00 0.00 0.00 0.00 0.00 0.00 0.00 0.01 0.03 0.05 0.06 0.06 0.06 0.06 0.07 0.08 0.11 0.14 0.17 0.19 0.18 0.17 0.17 0.19 0.24 0.29 0.31 0.30 0.28 0.27
0.02 0.02 0.02 0.02 0.02 0.02 0.02 0.03 0.03 0.03 0.04 0.04 0.04 0.04 0.03 0.03 0.03 0.03 0.03 0.02 0.02 0.03 0.03 0.03 0.02 0.02 0.02 0.01 0.01 0.01 0.01 0.00 0.00 0.00 0.00 0.00 0.00 0.00 0.00 0.00 0.00 0.00 0.00 0.00 0.00 0.00 0.00 0.01 0.04 0.06 0.07 0.06 0.06 0.09 0.11 0.13 0.16 0.18 0.18 0.17 0.16 0.15 0.17 0.21 0.24 0.28 0.31 0.27 0.25
0.02 0.02 0.02 0.02 0.02 0.02 0.02 0.03 0.03 0.04 0.04 0.04 0.04 0.03 0.03 0.03 0.03 0.03 0.03 0.03 0.03 0.03 0.03 0.03 0.03 0.03 0.03 0.02 0.02 0.02 0.01 0.01 0.01 0.00 0.00 0.00 0.00 0.00 0.00 0.00 0.00 0.00 0.00 0.00 0.00 0.00 0.00 0.00 0.02 0.04 0.05 0.05 0.07 0.10 0.14 0.17 0.19 0.21 0.22 0.19 0.19 0.18 0.18 0.20 0.21 0.25 0.27 0.25 0.23
0.01 0.02 0.02 0.02 0.02 0.02 0.02 0.02 0.03 0.03 0.04 0.04 0.03 0.03 0.03 0.03 0.03 0.03 0.03 0.03 0.04 0.04 0.04 0.04 0.04 0.04 0.04 0.04 0.03 0.02 0.02 0.01 0.01 0.01 0.01 0.00 0.00 0.00 0.00 0.00 0.00 0.00 0.00 0.00 0.00 0.00 0.00 0.00 0.00 0.02 0.03 0.04 0.05 0.10 0.16 0.20 0.26 0.27 0.24 0.21 0.20 0.20 0.21 0.23 0.20 0.20 0.20 0.17 0.19
0.01 0.01 0.01 0.02 0.02 0.02 0.02 0.03 0.03 0.03 0.04 0.04 0.04 0.03 0.03 0.04 0.04 0.04 0.04 0.05 0.05 0.06 0.05 0.04 0.05 0.05 0.05 0.04 0.04 0.03 0.02 0.02 0.02 0.01 0.01 0.01 0.01 0.00 0.00 0.00 0.00 0.00 0.00 0.00 0.00 0.00 0.00 0.00 0.00 0.00 0.01 0.02 0.04 0.08 0.14 0.24 0.29 0.30 0.28 0.25 0.22 0.22 0.22 0.20 0.20 0.18 0.16 0.14 0.13
0.01 0.01 0.01 0.02 0.02 0.02 0.02 0.03 0.03 0.03 0.03 0.03 0.03 0.03 0.04 0.04 0.04 0.05 0.06 0.07 0.08 0.07 0.07 0.06 0.06 0.06 0.05 0.05 0.04 0.03 0.03 0.02 0.02 0.01 0.01 0.01 0.01 0.00 0.00 0.00 0.00 0.00 0.00 0.00 0.00 0.00 0.00 0.00 0.00 0.00 0.00 0.01 0.04 0.09 0.16 0.26 0.28 0.29 0.30 0.29 0.26 0.25 0.24 0.21 0.19 0.18 0.16 0.13 0.11
0.01 0.01 0.02 0.02 0.02 0.02 0.03 0.03 0.03 0.03 0.03 0.03 0.03 0.03 0.03 0.03 0.03 0.03 0.04 0.05 0.06 0.05 0.05 0.05 0.05 0.05 0.05 0.05 0.04 0.04 0.03 0.03 0.02 0.02 0.01 0.01 0.01 0.01 0.00 0.00 0.00 0.00 0.00 0.00 0.00 0.00 0.00 0.00 0.00 0.00 0.00 0.01 0.06 0.12 0.19 0.29 0.30 0.30 0.30 0.32 0.30 0.28 0.25 0.23 0.20 0.16 0.13 0.11 0.09
0.01 0.01 0.02 0.02 0.02 0.02 0.03 0.03 0.03 0.03 0.03 0.03 0.03 0.02 0.03 0.03 0.03 0.03 0.04 0.05 0.05 0.04 0.05 0.05 0.06 0.06 0.06 0.05 0.05 0.04 0.04 0.04 0.04 0.03 0.02 0.01 0.01 0.01 0.01 0.01 0.00 0.00 0.00 0.00 0.00 0.00 0.00 0.00 0.00 0.00 0.01 0.02 0.07 0.13 0.21 0.29 0.33 0.31 0.29 0.29 0.30 0.28 0.26 0.22 0.22 0.21 0.17 0.11 0.08
0.02 0.01 0.01 0.02 0.02 0.02 0.03 0.03 0.03 0.03 0.03 0.03 0.02 0.02 0.02 0.03 0.03 0.04 0.05 0.05 0.05 0.05 0.07 0.09 0.10 0.10 0.08 0.08 0.07 0.06 0.06 0.06 0.05 0.04 0.03 0.03 0.02 0.01 0.01 0.01 0.01 0.01 0.01 0.00 0.00 0.00 0.00 0.00 0.00 0.00 0.01 0.03 0.08 0.14 0.21 0.28 0.33 0.32 0.29 0.27 0.26 0.25 0.25 0.22 0.23 0.25 0.24 0.14 0.09
0.02 0.02 0.01 0.02 0.02 0.02 0.02 0.03 0.03 0.03 0.02 0.02 0.02 0.02 0.02 0.03 0.03 0.05 0.07 0.07 0.07 0.08 0.09 0.11 0.12 0.12 0.11 0.10 0.10 0.09 0.08 0.07 0.07 0.06 0.05 0.04 0.03 0.02 0.02 0.02 0.01 0.01 0.01 0.01 0.01 0.01 0.00 0.00 0.00 0.00 0.01 0.03 0.07 0.12 0.18 0.26 0.31 0.33 0.32 0.28 0.25 0.24 0.23 0.23 0.25 0.26 0.25 0.18 0.12
0.02 0.02 0.01 0.02 0.02 0.02 0.02 0.02 0.02 0.02 0.02 0.02 0.02 0.03 0.03 0.05 0.06 0.09 0.10 0.10 0.09 0.09 0.09 0.08 0.08 0.09 0.10 0.10 0.10 0.09 0.09 0.09 0.07 0.07 0.06 0.04 0.04 0.03 0.03 0.02 0.02 0.01 0.01 0.01 0.01 0.01 0.01 0.01 0.00 0.00 0.01 0.02 0.05 0.09 0.15 0.23 0.28 0.31 0.31 0.30 0.27 0.24 0.22 0.22 0.22 0.22 0.21 0.19 0.14
0.02 0.01 0.01 0.01 0.02 0.02 0.02 0.02 0.02 0.02 0.02 0.02 0.03 0.03 0.05 0.08 0.12 0.13 0.12 0.10 0.09 0.08 0.07 0.06 0.06 0.06 0.07 0.08 0.08 0.08 0.09 0.09 0.08 0.07 0.06 0.05 0.04 0.04 0.04 0.03 0.02 0.01 0.01 0.01 0.01 0.01 0.01 0.01 0.01 0.01 0.01 0.01 0.03 0.07 0.14 0.21 0.26 0.28 0.29 0.29 0.27 0.24 0.22 0.21 0.20 0.20 0.20 0.17 0.12
0.02 0.01 0.01 0.01 0.02 0.02 0.02 0.02 0.02 0.02 0.02 0.02 0.03 0.04 0.07 0.12 0.18 0.17 0.12 0.08 0.07 0.07 0.07 0.07 0.06 0.06 0.06 0.08 0.08 0.08 0.08 0.08 0.08 0.07 0.06 0.06 0.05 0.05 0.05 0.04 0.03 0.02 0.01 0.01 0.01 0.01 0.01 0.01 0.01 0.01 0.01 0.02 0.02 0.05 0.10 0.19 0.24 0.26 0.27 0.28 0.26 0.24 0.23 0.22 0.20 0.20 0.18 0.13 0.10
0.02 0.01 0.01 0.01 0.02 0.02 0.02 0.02 0.02 0.02 0.02 0.02 0.03 0.05 0.11 0.19 0.24 0.18 0.09 0.06 0.06 0.07 0.07 0.07 0.06 0.05 0.06 0.06 0.07 0.08 0.08 0.08 0.07 0.07 0.06 0.06 0.06 0.05 0.05 0.04 0.03 0.03 0.02 0.01 0.01 0.01 0.01 0.01 0.02 0.02 0.02 0.02 0.02 0.03 0.07 0.18 0.22 0.24 0.26 0.24 0.25 0.24 0.22 0.20 0.19 0.17 0.16 0.12 0.12
0.02 0.02 0.02 0.02 0.02 0.02 0.02 0.02 0.02 0.02 0.02 0.02 0.03 0.07 0.14 0.23 0.23 0.16 0.08 0.05 0.07 0.08 0.07 0.07 0.06 0.06 0.05 0.06 0.06 0.07 0.07 0.07 0.07 0.07 0.06 0.06 0.05 0.05 0.04 0.04 0.04 0.03 0.02 0.02 0.01 0.01 0.01 0.01 0.02 0.02 0.03 0.03 0.03 0.04 0.06 0.11 0.17 0.21 0.23 0.24 0.23 0.22 0.20 0.17 0.16 0.15 0.15 0.14 0.14
0.02 0.02 0.02 0.02 0.02 0.02 0.02 0.02 0.02 0.02 0.02 0.02 0.04 0.09 0.15 0.21 0.17 0.10 0.06 0.06 0.10 0.11 0.12 0.11 0.08 0.07 0.06 0.06 0.06 0.06 0.06 0.07 0.07 0.07 0.08 0.07 0.07 0.05 0.04 0.04 0.03 0.03 0.02 0.02 0.02 0.02 0.01 0.01 0.02 0.02 0.03 0.04 0.04 0.05 0.06 0.07 0.12 0.15 0.18 0.21 0.19 0.18 0.17 0.13 0.12 0.12 0.12 0.12 0.15
0.02 0.02 0.02 0.02 0.02 0.02 0.02 0.02 0.02 0.02 0.02 0.02 0.05 0.09 0.14 0.17 0.11 0.07 0.05 0.07 0.11 0.14 0.15 0.14 0.12 0.09 0.07 0.06 0.06 0.07 0.07 0.07 0.08 0.08 0.08 0.08 0.08 0.08 0.06 0.04 0.04 0.03 0.03 0.03 0.02 0.02 0.02 0.02 0.02 0.02 0.02 0.03 0.04 0.05 0.07 0.07 0.09 0.10 0.12 0.14 0.15 0.13 0.11 0.10 0.09 0.08 0.08 0.09 0.14
0.03 0.02 0.02 0.02 0.02 0.02 0.02 0.02 0.02 0.02 0.02 0.02 0.05 0.09 0.13 0.13 0.08 0.07 0.07 0.06 0.10 0.15 0.18 0.17 0.18 0.14 0.09 0.08 0.08 0.08 0.08 0.07 0.07 0.07 0.07 0.08 0.08 0.09 0.08 0.05 0.04 0.04 0.03 0.03 0.03 0.03 0.03 0.03 0.03 0.02 0.02 0.03 0.04 0.06 0.07 0.08 0.08 0.08 0.09 0.09 0.10 0.08 0.06 0.06 0.07 0.07 0.08 0.09 0.14
0.03 0.03 0.02 0.03 0.03 0.03 0.02 0.03 0.03 0.02 0.02 0.02 0.05 0.09 0.13 0.12 0.08 0.08 0.10 0.11 0.07 0.09 0.14 0.20 0.21 0.17 0.13 0.10 0.09 0.07 0.06 0.06 0.06 0.06 0.07 0.07 0.07 0.07 0.07 0.07 0.05 0.04 0.04 0.04 0.04 0.03 0.04 0.05 0.04 0.03 0.03 0.04 0.06 0.08 0.09 0.10 0.09 0.08 0.07 0.07 0.06 0.05 0.04 0.04 0.06 0.07 0.08 0.09 0.10
0.03 0.03 0.03 0.03 0.03 0.03 0.03 0.03 0.03 0.03 0.02 0.02 0.05 0.10 0.13 0.13 0.13 0.12 0.14 0.25 0.19 0.13 0.10 0.14 0.21 0.21 0.16 0.12 0.08 0.07 0.06 0.06 0.06 0.06 0.05 0.05 0.05 0.05 0.06 0.07 0.06 0.05 0.05 0.05 0.04 0.04 0.05 0.06 0.06 0.04 0.03 0.04 0.07 0.09 0.11 0.12 0.11 0.09 0.08 0.06 0.05 0.04 0.03 0.02 0.04 0.06 0.08 0.08 0.06
0.04 0.04 0.03 0.03 0.03 0.03 0.03 0.03 0.03 0.03 0.02 0.02 0.05 0.11 0.15 0.15 0.16 0.17 0.23 0.41 0.38 0.31 0.22 0.13 0.19 0.22 0.23 0.18 0.11 0.07 0.05 0.05 0.05 0.05 0.05 0.05 0.04 0.05 0.05 0.07 0.08 0.08 0.07 0.06 0.05 0.05 0.07 0.10 0.13 0.11 0.08 0.05 0.06 0.07 0.08 0.08 0.09 0.09 0.09 0.08 0.05 0.04 0.02 0.02 0.03 0.05 0.07 0.07 0.05
0.04 0.04 0.04 0.04 0.04 0.04 0.03 0.03 0.03 0.03 0.03 0.03 0.06 0.11 0.16 0.16 0.20 0.24 0.32 0.46 0.60 0.59 0.49 0.34 0.23 0.24 0.29 0.27 0.21 0.14 0.08 0.06 0.06 0.06 0.06 0.06 0.06 0.05 0.06 0.07 0.09 0.10 0.10 0.06 0.06 0.07 0.10 0.17 0.17 0.16 0.14 0.09 0.07 0.06 0.06 0.07 0.07 0.08 0.08 0.08 0.05 0.03 0.02 0.02 0.02 0.04 0.06 0.07 0.07
0.04 0.04 0.04 0.04 0.04 0.04 0.04 0.03 0.03 0.03 0.03 0.03 0.05 0.10 0.14 0.14 0.21 0.29 0.38 0.50 0.79 0.90 0.88 0.78 0.69 0.54 0.40 0.33 0.30 0.25 0.18 0.10 0.09 0.08 0.07 0.07 0.08 0.08 0.08 0.08 0.09 0.11 0.11 0.08 0.08 0.10 0.13 0.15 0.15 0.14 0.14 0.13 0.10 0.07 0.06 0.06 0.07 0.07 0.07 0.07 0.04 0.03 0.02 0.02 0.03 0.04 0.05 0.06 0.09
0.04 0.04 0.04 0.04 0.04 0.04 0.03 0.03 0.03 0.03 0.03 0.03 0.05 0.08 0.10 0.08 0.18 0.28 0.37 0.45 0.58 0.68 0.76 0.82 0.69 0.58 0.48 0.41 0.41 0.37 0.32 0.26 0.16 0.11 0.10 0.09 0.10 0.10 0.10 0.09 0.09 0.10 0.11 0.12 0.13 0.16 0.18 0.16 0.15 0.15 0.17 0.19 0.15 0.11 0.08 0.06 0.07 0.07 0.06 0.04 0.03 0.03 0.03 0.03 0.03 0.04 0.04 0.05 0.09
0.04 0.04 0.04 0.04 0.04 0.04 0.03 0.03 0.04 0.03 0.03 0.03 0.04 0.06 0.08 0.07 0.13 0.25 0.37 0.46 0.55 0.59 0.58 0.56 0.62 0.58 0.49 0.41 0.40 0.40 0.39 0.32 0.21 0.15 0.13 0.12 0.11 0.11 0.11 0.10 0.09 0.09 0.11 0.13 0.15 0.18 0.20 0.19 0.19 0.20 0.22 0.22 0.23 0.19 0.14 0.10 0.07 0.06 0.06 0.04 0.04 0.04 0.04 0.04 0.03 0.03 0.02 0.03 0.06
0.04 0.04 0.04 0.04 0.04 0.04 0.04 0.04 0.04 0.03 0.04 0.04 0.05 0.07 0.09 0.10 0.11 0.17 0.26 0.36 0.66 0.70 0.56 0.28 0.38 0.51 0.56 0.48 0.41 0.39 0.37 0.34 0.30 0.23 0.16 0.14 0.13 0.12 0.12 0.11 0.10 0.10 0.10 0.11 0.17 0.22 0.24 0.24 0.24 0.25 0.26 0.27 0.28 0.28 0.26 0.21 0.16 0.11 0.10 0.13 0.11 0.10 0.09 0.09 0.06 0.04 0.02 0.02 0.02
0.04 0.04 0.04 0.04 0.04 0.04 0.04 0.04 0.04 0.04 0.04 0.04 0.05 0.06 0.08 0.08 0.09 0.13 0.20 0.28 0.45 0.63 0.66 0.37 0.31 0.44 0.60 0.64 0.55 0.49 0.43 0.37 0.35 0.29 0.22 0.19 0.16 0.14 0.13 0.13 0.13 0.11 0.11 0.12 0.18 0.23 0.26 0.25 0.27 0.28 0.28 0.29 0.32 0.34 0.35 0.33 0.29 0.29 0.28 0.21 0.19 0.16 0.14 0.10 0.08 0.07 0.05 0.03 0.03
0.04 0.04 0.04 0.04 0.04 0.04 0.04 0.04 0.04 0.04 0.04 0.04 0.04 0.05 0.06 0.06 0.08 0.12 0.18 0.24 0.36 0.54 0.63 0.49 0.36 0.33 0.40 0.57 0.59 0.54 0.46 0.39 0.36 0.33 0.30 0.25 0.20 0.17 0.16 0.16 0.16 0.15 0.15 0.18 0.21 0.24 0.26 0.25 0.28 0.30 0.31 0.30 0.29 0.30 0.31 0.31 0.30 0.29 0.27 0.23 0.17 0.13 0.10 0.07 0.06 0.06 0.06 0.05 0.06
0.04 0.04 0.04 0.04 0.04 0.04 0.04 0.04 0.04 0.04 0.04 0.04 0.04 0.04 0.04 0.04 0.07 0.11 0.15 0.19 0.23 0.34 0.42 0.40 0.33 0.24 0.21 0.30 0.39 0.42 0.41 0.36 0.34 0.32 0.31 0.30 0.25 0.22 0.20 0.19 0.19 0.20 0.21 0.22 0.22 0.22 0.22 0.20 0.24 0.29 0.32 0.28 0.26 0.25 0.26 0.27 0.28 0.27 0.25 0.23 0.18 0.14 0.10 0.07 0.07 0.06 0.05 0.06 0.06
0.05 0.05 0.04 0.04 0.04 0.04 0.04 0.04 0.04 0.04 0.04 0.04 0.04 0.04 0.04 0.04 0.06 0.09 0.12 0.14 0.14 0.18 0.22 0.25 0.21 0.17 0.14 0.15 0.20 0.25 0.28 0.27 0.27 0.28 0.29 0.29 0.26 0.24 0.23 0.22 0.23 0.25 0.27 0.25 0.24 0.21 0.19 0.18 0.21 0.27 0.31 0.27 0.25 0.24 0.24 0.25 0.26 0.26 0.24 0.22 0.18 0.14 0.11 0.09 0.08 0.07 0.07 0.08 0.08
0.05 0.04 0.04 0.04 0.04 0.03 0.04 0.03 0.04 0.04 0.04 0.04 0.04 0.04 0.04 0.05 0.07 0.09 0.10 0.11 0.11 0.11 0.14 0.19 0.16 0.14 0.12 0.12 0.15 0.19 0.21 0.22 0.20 0.21 0.23 0.24 0.24 0.23 0.23 0.24 0.26 0.30 0.33 0.31 0.28 0.22 0.18 0.17 0.19 0.24 0.28 0.28 0.25 0.25 0.25 0.25 0.27 0.26 0.25 0.22 0.17 0.12 0.08 0.06 0.07 0.07 0.08 0.08 0.08
0.04 0.04 0.04 0.04 0.04 0.04 0.03 0.03 0.04 0.04 0.04 0.04 0.04 0.04 0.04 0.05 0.07 0.08 0.09 0.09 0.09 0.10 0.12 0.19 0.15 0.14 0.15 0.15 0.18 0.22 0.23 0.21 0.18 0.17 0.17 0.16 0.17 0.18 0.19 0.20 0.29 0.34 0.36 0.35 0.32 0.26 0.21 0.18 0.20 0.24 0.27 0.26 0.23 0.22 0.23 0.24 0.25 0.25 0.23 0.20 0.15 0.11 0.08 0.07 0.07 0.08 0.08 0.08 0.08
0.04 0.04 0.04 0.04 0.04 0.04 0.04 0.03 0.03 0.04 0.04 0.04 0.04 0.04 0.05 0.05 0.07 0.07 0.08 0.08 0.08 0.08 0.10 0.14 0.16 0.20 0.24 0.26 0.29 0.31 0.31 0.25 0.21 0.18 0.15 0.14 0.13 0.13 0.14 0.15 0.28 0.34 0.36 0.34 0.31 0.28 0.25 0.23 0.24 0.28 0.29 0.24 0.20 0.19 0.20 0.21 0.21 0.21 0.19 0.15 0.12 0.09 0.08 0.08 0.08 0.09 0.09 0.09 0.08
0.04 0.04 0.04 0.04 0.04 0.04 0.04 0.03 0.03 0.04 0.04 0.04 0.04 0.05 0.05 0.05 0.06 0.07 0.07 0.07 0.07 0.07 0.07 0.08 0.19 0.29 0.36 0.40 0.41 0.39 0.35 0.30 0.25 0.21 0.18 0.15 0.14 0.15 0.16 0.17 0.23 0.27 0.29 0.29 0.26 0.25 0.25 0.28 0.30 0.33 0.32 0.25 0.22 0.21 0.22 0.20 0.17 0.16 0.15 0.13 0.11 0.09 0.07 0.08 0.08 0.09 0.09 0.09 0.08
0.04 0.04 0.03 0.03 0.03 0.03 0.04 0.04 0.04 0.04 0.04 0.04 0.05 0.05 0.06 0.05 0.05 0.06 0.06 0.06 0.06 0.07 0.07 0.08 0.19 0.28 0.36 0.42 0.42 0.37 0.29 0.24 0.23 0.23 0.22 0.21 0.24 0.24 0.22 0.20 0.21 0.22 0.23 0.22 0.19 0.20 0.22 0.27 0.34 0.37 0.35 0.28 0.27 0.25 0.22 0.19 0.15 0.13 0.12 0.11 0.11 0.10 0.08 0.08 0.08 0.09 0.10 0.09 0.09
MSLP
1009.36 1009.16 1009.00 1008.76 1008.52 1008.28 1008.00 1007.72 1007.48 1007.32 1007.04 1006.80 1006.52 1006.24 1006.00 1005.76 1005.44 1005.12 1004.84 1004.60 1004.28 1004.04 1003.84 1003.60 1003.40 1003.24 1003.16 1003.04 1003.00 1002.96 1002.92 1002.88 1002.88 1002.88 1002.88 1002.88 1002.88 1002.88 1002.96 1003.00 1003.04 1003.08 1003.12 1003.16 1003.16 1003.20 1003.28 1003.32 1003.36 1003.36 1003.32 1003.28 1003.20 1003.16 1003.12 1003.00 1003.00 1002.92 1002.88 1002.88 1002.84 1002.80 1002.84 1002.88 1002.88 1002.92 1003.00 1003.08 1003.16
1009.16 1009.00 1008.80 1008.60 1008.40 1008.16 1007.88 1007.56 1007.32 1007.08 1006.88 1006.60 1006.32 1006.04 1005.80 1005.56 1005.24 1004.92 1004.64 1004.40 1004.16 1003.96 1003.72 1003.44 1003.28 1003.12 1003.00 1002.88 1002.84 1002.76 1002.72 1002.68 1002.64 1002.60 1002.64 1002.64 1002.64 1002.64 1002.72 1002.72 1002.80 1002.84 1002.88 1002.92 1003.00 1003.00 1003.04 1003.08 1003.12 1003.08 1003.00 1003.00 1002.92 1002.88 1002.80 1002.80 1002.80 1002.76 1002.72 1002.64 1002.60 1002.60 1002.60 1002.60 1002.60 1002.68 1002.76 1002.88 1002.92
1009.00 1008.76 1008.60 1008.40 1008.16 1007.92 1007.64 1007.32 1007.04 1006.80 1006.60 1006.36 1006.12 1005.88 1005.60 1005.32 1004.96 1004.68 1004.40 1004.16 1004.00 1003.76 1003.56 1003.32 1003.08 1002.92 1002.80 1002.68 1002.60 1002.52 1002.44 1002.44 1002.40 1002.40 1002.40 1002.36 1002.36 1002.40 1002.44 1002.52 1002.60 1002.60 1002.64 1002.72 1002.76 1002.76 1002.80 1002.88 1002.88 1002.88 1002.80 1002.72 1002.68 1002.60 1002.48 1002.44 1002.52 1002.48 1002.44 1002.44 1002.44 1002.44 1002.40 1002.36 1002.36 1002.44 1002.60 1002.64 1002.72
1008.72 1008.52 1008.28 1008.08 1007.88 1007.64 1007.40 1007.12 1006.80 1006.60 1006.36 1006.16 1005.88 1005.68 1005.44 1005.12 1004.80 1004.48 1004.20 1004.00 1003.80 1003.60 1003.40 1003.16 1002.96 1002.72 1002.60 1002.44 1002.36 1002.28 1002.20 1002.16 1002.16 1002.16 1002.12 1002.12 1002.12 1002.12 1002.16 1002.24 1002.28 1002.32 1002.36 1002.44 1002.52 1002.56 1002.60 1002.68 1002.72 1002.64 1002.60 1002.52 1002.44 1002.40 1002.28 1002.20 1002.20 1002.20 1002.16 1002.16 1002.20 1002.16 1002.12 1002.12 1002.16 1002.28 1002.36 1002.44 1002.48
1008.40 1008.20 1008.00 1007.80 1007.56 1007.32 1007.12 1006.88 1006.60 1006.36 1006.16 1005.92 1005.72 1005.44 1005.16 1004.88 1004.60 1004.28 1004.00 1003.72 1003.52 1003.32 1003.16 1002.96 1002.76 1002.60 1002.40 1002.24 1002.16 1002.08 1002.00 1001.96 1001.92 1001.92 1001.88 1001.84 1001.80 1001.84 1001.88 1001.96 1002.00 1002.04 1002.12 1002.16 1002.28 1002.28 1002.36 1002.44 1002.44 1002.44 1002.40 1002.32 1002.28 1002.20 1002.12 1002.04 1002.00 1001.92 1001.88 1001.88 1001.88 1001.88 1001.88 1001.88 1001.92 1002.00 1002.12 1002.20 1002.28
1008.08 1007.88 1007.72 1007.52 1007.32 1007.08 1006.88 1006.60 1006.40 1006.16 1005.96 1005.72 1005.44 1005.16 1004.88 1004.64 1004.40 1004.12 1003.84 1003.56 1003.32 1003.08 1002.96 1002.80 1002.60 1002.44 1002.28 1002.16 1002.00 1001.92 1001.84 1001.80 1001.76 1001.72 1001.60 1001.60 1001.56 1001.60 1001.60 1001.64 1001.68 1001.72 1001.84 1001.88 1001.96 1002.04 1002.16 1002.24 1002.24 1002.24 1002.20 1002.16 1002.12 1002.04 1002.00 1001.92 1001.84 1001.72 1001.64 1001.60 1001.56 1001.60 1001.64 1001.68 1001.72 1001.76 1001.88 1002.00 1002.12
1007.80 1007.60 1007.40 1007.20 1007.00 1006.80 1006.56 1006.36 1006.12 1005.88 1005.68 1005.44 1005.16 1004.84 1004.60 1004.40 1004.16 1003.92 1003.68 1003.44 1003.20 1003.00 1002.80 1002.64 1002.44 1002.28 1002.08 1002.00 1001.84 1001.72 1001.60 1001.56 1001.44 1001.44 1001.36 1001.32 1001.32 1001.32 1001.32 1001.36 1001.40 1001.44 1001.52 1001.60 1001.72 1001.80 1001.88 1002.00 1002.00 1001.96 1001.92 1001.92 1001.88 1001.84 1001.80 1001.80 1001.72 1001.60 1001.48 1001.40 1001.32 1001.32 1001.32 1001.40 1001.44 1001.52 1001.64 1001.76 1001.88
1007.56 1007.32 1007.16 1006.92 1006.72 1006.48 1006.24 1006.00 1005.84 1005.60 1005.32 1005.04 1004.76 1004.48 1004.28 1004.08 1003.88 1003.64 1003.44 1003.28 1003.00 1002.80 1002.60 1002.44 1002.24 1002.04 1001.88 1001.76 1001.60 1001.44 1001.32 1001.24 1001.16 1001.08 1001.04 1001.00 1001.00 1001.00 1001.00 1001.00 1001.08 1001.16 1001.16 1001.28 1001.40 1001.48 1001.60 1001.72 1001.72 1001.68 1001.68 1001.68 1001.64 1001.60 1001.60 1001.60 1001.56 1001.48 1001.36 1001.28 1001.20 1001.16 1001.16 1001.16 1001.16 1001.24 1001.36 1001.52 1001.68
1007.20 1007.00 1006.84 1006.60 1006.40 1006.16 1005.92 1005.72 1005.52 1005.28 1005.00 1004.72 1004.44 1004.20 1004.00 1003.84 1003.60 1003.44 1003.24 1003.00 1002.80 1002.60 1002.44 1002.24 1002.00 1001.88 1001.72 1001.56 1001.36 1001.20 1001.08 1000.96 1000.84 1000.76 1000.72 1000.68 1000.64 1000.64 1000.64 1000.72 1000.76 1000.80 1000.88 1000.96 1001.04 1001.16 1001.32 1001.40 1001.40 1001.40 1001.40 1001.44 1001.40 1001.40 1001.36 1001.40 1001.44 1001.36 1001.28 1001.16 1001.08 1001.04 1001.00 1001.00 1000.96 1000.96 1001.08 1001.28 1001.44
1006.92 1006.72 1006.48 1006.28 1006.04 1005.84 1005.60 1005.36 1005.16 1004.92 1004.64 1004.32 1004.08 1003.92 1003.72 1003.52 1003.36 1003.20 1003.00 1002.76 1002.60 1002.40 1002.20 1001.96 1001.80 1001.64 1001.48 1001.32 1001.12 1000.92 1000.76 1000.68 1000.60 1000.44 1000.40 1000.32 1000.28 1000.28 1000.28 1000.32 1000.40 1000.44 1000.52 1000.60 1000.72 1000.88 1001.00 1001.04 1001.04 1001.04 1001.08 1001.12 1001.16 1001.16 1001.20 1001.24 1001.24 1001.24 1001.16 1001.08 1001.00 1000.92 1000.88 1000.88 1000.84 1000.76 1000.80 1000.96 1001.16
1006.64 1006.44 1006.20 1005.96 1005.72 1005.48 1005.28 1005.04 1004.76 1004.52 1004.24 1004.00 1003.72 1003.56 1003.40 1003.20 1003.00 1002.84 1002.68 1002.48 1002.28 1002.04 1001.80 1001.64 1001.56 1001.36 1001.16 1001.00 1000.76 1000.60 1000.48 1000.40 1000.28 1000.16 1000.04 1000.00 999.96 999.92 999.92 1000.00 1000.00 1000.04 1000.16 1000.28 1000.40 1000.56 1000.68 1000.72 1000.72 1000.72 1000.76 1000.84 1000.92 1001.00 1001.00 1001.04 1001.08 1001.04 1001.00 1000.96 1000.88 1000.80 1000.72 1000.72 1000.72 1000.64 1000.60 1000.68 1000.88
1006.32 1006.08 1005.88 1005.60 1005.40 1005.16 1004.96 1004.68 1004.40 1004.16 1003.88 1003.64 1003.40 1003.20 1003.00 1002.84 1002.64 1002.48 1002.36 1002.16 1001.92 1001.64 1001.44 1001.32 1001.20 1001.04 1000.84 1000.60 1000.40 1000.24 1000.12 1000.00 999.96 999.88 999.80 999.72 999.64 999.60 999.60 999.60 999.68 999.72 999.76 999.88 1000.00 1000.16 1000.28 1000.32 1000.32 1000.36 1000.44 1000.52 1000.64 1000.72 1000.80 1000.84 1000.88 1000.88 1000.80 1000.76 1000.76 1000.72 1000.64 1000.56 1000.60 1000.56 1000.44 1000.44 1000.60
1006.04 1005.80 1005.56 1005.32 1005.12 1004.88 1004.60 1004.32 1004.08 1003.84 1003.56 1003.32 1003.08 1002.88 1002.72 1002.48 1002.32 1002.16 1002.00 1001.80 1001.52 1001.32 1001.08 1000.96 1000.84 1000.68 1000.44 1000.24 1000.04 999.92 999.80 999.68 999.60 999.52 999.44 999.36 999.32 999.28 999.28 999.28 999.32 999.36 999.44 999.52 999.64 999.80 999.88 999.92 999.96 1000.00 1000.12 1000.20 1000.32 1000.44 1000.52 1000.60 1000.60 1000.64 1000.60 1000.56 1000.52 1000.44 1000.40 1000.36 1000.40 1000.40 1000.32 1000.28 1000.32
1005.76 1005.48 1005.24 1005.00 1004.80 1004.60 1004.28 1004.04 1003.76 1003.52 1003.24 1003.00 1002.76 1002.60 1002.36 1002.16 1002.00 1001.88 1001.72 1001.44 1001.24 1001.00 1000.84 1000.68 1000.52 1000.32 1000.12 999.96 999.80 999.68 999.52 999.36 999.28 999.16 999.00 998.92 998.88 998.88 998.88 998.88 998.88 998.96 999.04 999.16 999.28 999.36 999.44 999.52 999.60 999.68 999.80 999.88 1000.00 1000.12 1000.20 1000.28 1000.36 1000.36 1000.32 1000.28 1000.24 1000.20 1000.16 1000.16 1000.20 1000.24 1000.24 1000.16 1000.16
1005.44 1005.20 1004.96 1004.72 1004.52 1004.28 1004.00 1003.76 1003.48 1003.20 1002.96 1002.72 1002.48 1002.28 1002.08 1001.88 1001.72 1001.60 1001.44 1001.20 1000.96 1000.76 1000.60 1000.44 1000.16 1000.00 999.84 999.72 999.56 999.40 999.24 999.12 998.96 998.80 998.60 998.48 998.44 998.44 998.44 998.44 998.48 998.56 998.64 998.76 998.88 998.96 999.04 999.12 999.24 999.36 999.44 999.56 999.68 999.80 999.92 1000.00 1000.04 1000.08 1000.08 1000.00 999.96 999.96 999.96 999.96 1000.00 1000.04 1000.04 1000.00 1000.00
1005.16 1004.88 1004.68 1004.44 1004.24 1004.00 1003.72 1003.44 1003.20 1002.92 1002.68 1002.44 1002.20 1002.04 1001.88 1001.64 1001.44 1001.32 1001.16 1000.96 1000.72 1000.52 1000.32 1000.12 999.88 999.72 999.56 999.44 999.28 999.16 999.00 998.84 998.60 998.44 998.24 998.04 997.96 997.92 997.92 997.96 998.00 998.08 998.20 998.32 998.44 998.56 998.60 998.72 998.88 999.00 999.16 999.24 999.36 999.48 999.60 999.72 999.76 999.80 999.80 999.76 999.72 999.72 999.72 999.72 999.80 999.80 999.80 999.88 999.88
1004.88 1004.64 1004.44 1004.16 1003.92 1003.68 1003.44 1003.16 1002.92 1002.68 1002.40 1002.16 1001.96 1001.80 1001.60 1001.44 1001.20 1001.00 1000.88 1000.68 1000.44 1000.24 1000.00 999.76 999.60 999.48 999.32 999.12 998.96 998.84 998.68 998.44 998.20 998.00 997.76 997.60 997.44 997.44 997.40 997.44 997.44 997.56 997.72 997.88 998.00 998.12 998.20 998.36 998.48 998.64 998.80 998.92 999.04 999.16 999.28 999.40 999.44 999.48 999.52 999.52 999.52 999.52 999.52 999.56 999.60 999.60 999.60 999.64 999.68
1004.64 1004.36 1004.16 1003.88 1003.68 1003.40 1003.16 1002.88 1002.68 1002.44 1002.16 1001.92 1001.72 1001.48 1001.32 1001.12 1000.88 1000.68 1000.44 1000.28 1000.16 999.92 999.72 999.44 999.32 999.20 999.00 998.80 998.60 998.48 998.32 998.12 997.84 997.60 997.32 997.12 997.00 996.88 996.88 996.88 996.92 997.00 997.20 997.36 997.52 997.68 997.80 998.00 998.16 998.32 998.52 998.64 998.72 998.88 999.00 999.08 999.16 999.24 999.28 999.28 999.28 999.32 999.32 999.32 999.36 999.40 999.40 999.40 999.44
1004.40 1004.16 1003.88 1003.64 1003.40 1003.16 1002.88 1002.64 1002.40 1002.16 1001.88 1001.64 1001.44 1001.16 1000.96 1000.72 1000.52 1000.28 1000.08 999.88 999.76 999.60 999.40 999.16 998.96 998.80 998.64 998.44 998.28 998.08 997.88 997.72 997.44 997.16 996.92 996.72 996.56 996.44 996.40 996.36 996.44 996.56 996.68 996.84 997.00 997.20 997.40 997.60 997.80 998.00 998.20 998.36 998.48 998.60 998.72 998.80 998.88 998.96 999.00 999.04 999.08 999.08 999.08 999.08 999.12 999.16 999.16 999.16 999.20
1004.20 1003.96 1003.72 1003.44 1003.16 1002.88 1002.64 1002.40 1002.12 1001.84 1001.56 1001.32 1001.08 1000.84 1000.60 1000.40 1000.16 999.96 999.72 999.48 999.32 999.24 999.08 998.84 998.60 998.36 998.16 998.00 997.84 997.64 997.44 997.24 997.00 996.76 996.52 996.28 996.16 996.00 995.92 995.92 996.00 996.08 996.24 996.40 996.60 996.80 997.00 997.24 997.44 997.64 997.88 998.04 998.20 998.32 998.44 998.52 998.60 998.68 998.72 998.80 998.84 998.84 998.84 998.84 998.88 998.88 998.88 998.92 998.96
1004.08 1003.84 1003.56 1003.28 1003.00 1002.72 1002.40 1002.12 1001.84 1001.56 1001.28 1001.00 1000.72 1000.48 1000.24 1000.00 999.80 999.60 999.32 999.12 998.92 998.76 998.60 998.40 998.16 997.92 997.68 997.48 997.32 997.08 996.88 996.72 996.56 996.28 996.04 995.88 995.68 995.56 995.44 995.48 995.56 995.64 995.80 996.00 996.20 996.44 996.68 996.92 997.16 997.36 997.56 997.76 997.92 998.04 998.16 998.28 998.36 998.44 998.48 998.56 998.60 998.56 998.56 998.56 998.60 998.60 998.64 998.72 998.72
1003.96 1003.68 1003.40 1003.12 1002.80 1002.48 1002.16 1001.88 1001.60 1001.28 1001.00 1000.68 1000.40 1000.16 999.88 999.60 999.40 999.16 998.92 998.72 998.56 998.32 998.16 997.92 997.68 997.44 997.20 997.00 996.76 996.56 996.36 996.20 996.00 995.76 995.52 995.36 995.16 995.04 995.00 995.00 995.12 995.24 995.44 995.60 995.88 996.08 996.32 996.60 996.84 997.04 997.28 997.48 997.60 997.76 997.88 998.00 998.08 998.16 998.24 998.28 998.28 998.28 998.28 998.28 998.28 998.32 998.36 998.40 998.44
1003.88 1003.60 1003.28 1002.92 1002.60 1002.28 1002.00 1001.68 1001.32 1001.00 1000.68 1000.36 1000.08 999.80 999.56 999.32 999.08 998.88 998.64 998.44 998.20 998.00 997.72 997.48 997.24 996.96 996.72 996.44 996.24 996.04 995.84 995.60 995.40 995.16 995.00 994.84 994.72 994.60 994.60 994.68 994.76 994.88 995.04 995.28 995.48 995.76 996.08 996.32 996.60 996.80 997.00 997.16 997.36 997.48 997.60 997.72 997.80 997.88 997.92 998.00 998.00 998.00 998.00 998.00 998.00 998.00 998.08 998.16 998.20
1003.76 1003.44 1003.12 1002.80 1002.44 1002.12 1001.80 1001.44 1001.08 1000.72 1000.40 1000.12 999.80 999.56 999.32 999.08 998.88 998.64 998.40 998.16 997.88 997.64 997.32 997.04 996.76 996.44 996.16 995.88 995.68 995.44 995.24 995.00 994.80 994.60 994.40 994.28 994.24 994.24 994.28 994.36 994.44 994.60 994.76 994.96 995.16 995.44 995.72 996.00 996.28 996.52 996.72 996.92 997.08 997.20 997.32 997.44 997.52 997.56 997.60 997.68 997.72 997.72 997.68 997.64 997.68 997.72 997.80 997.88 997.92
1003.72 1003.36 1003.00 1002.72 1002.32 1002.00 1001.64 1001.28 1000.88 1000.52 1000.20 999.92 999.64 999.44 999.16 998.96 998.68 998.40 998.16 997.88 997.56 997.28 996.96 996.68 996.36 996.04 995.72 995.44 995.08 994.80 994.56 994.32 994.16 994.00 993.92 993.88 993.88 993.96 994.04 994.16 994.28 994.36 994.52 994.72 994.96 995.20 995.44 995.72 995.96 996.20 996.44 996.68 996.84 996.96 997.00 997.12 997.16 997.20 997.28 997.32 997.32 997.32 997.32 997.32 997.32 997.40 997.48 997.60 997.68
1003.64 1003.32 1002.96 1002.60 1002.24 1001.88 1001.52 1001.16 1000.72 1000.40 1000.08 999.80 999.56 999.32 999.04 998.80 998.52 998.20 997.92 997.60 997.32 996.96 996.68 996.40 996.08 995.72 995.40 995.00 994.52 994.16 993.88 993.68 993.56 993.52 993.56 993.60 993.68 993.76 993.88 994.00 994.12 994.24 994.40 994.60 994.84 995.04 995.28 995.48 995.72 995.96 996.20 996.40 996.60 996.72 996.80 996.80 996.84 996.88 996.88 996.88 996.92 996.92 996.92 996.96 997.00 997.08 997.16 997.28 997.36
1003.56 1003.20 1002.88 1002.52 1002.16 1001.80 1001.40 1001.00 1000.64 1000.28 1000.00 999.72 999.48 999.20 998.96 998.68 998.40 998.08 997.76 997.44 997.12 996.76 996.44 996.16 995.84 995.48 995.08 994.52 994.00 993.60 993.32 993.20 993.16 993.20 993.32 993.40 993.44 993.60 993.72 993.88 994.00 994.16 994.28 994.44 994.72 994.96 995.16 995.32 995.52 995.72 995.96 996.16 996.32 996.44 996.52 996.56 996.52 996.48 996.44 996.44 996.48 996.52 996.60 996.60 996.72 996.84 996.92 997.00 997.12
1003.52 1003.16 1002.84 1002.44 1002.12 1001.72 1001.32 1000.92 1000.60 1000.28 1000.00 999.68 999.44 999.16 998.84 998.60 998.28 998.00 997.68 997.32 997.00 996.68 996.32 996.00 995.72 995.32 994.80 994.20 993.68 993.32 993.12 993.00 993.00 993.04 993.16 993.24 993.36 993.48 993.64 993.80 993.96 994.08 994.24 994.44 994.64 994.88 995.04 995.20 995.36 995.60 995.76 995.92 996.08 996.20 996.28 996.28 996.28 996.20 996.12 996.12 996.12 996.16 996.24 996.32 996.44 996.60 996.68 996.76 996.88
1003.52 1003.16 1002.84 1002.44 1002.08 1001.72 1001.32 1000.88 1000.56 1000.28 999.96 999.64 999.36 999.08 998.80 998.48 998.20 997.92 997.64 997.32 997.00 996.68 996.32 995.96 995.60 995.16 994.68 994.12 993.60 993.20 993.04 992.96 993.00 993.00 993.12 993.24 993.32 993.44 993.60 993.72 993.88 994.04 994.20 994.40 994.60 994.76 994.96 995.12 995.28 995.44 995.60 995.72 995.88 995.96 996.04 996.08 996.04 995.96 995.84 995.80 995.76 995.84 995.92 996.04 996.16 996.28 996.36 996.48 996.60
1003.52 1003.16 1002.84 1002.44 1002.08 1001.72 1001.32 1000.96 1000.60 1000.28 1000.00 999.64 999.32 999.04 998.76 998.44 998.16 997.92 997.64 997.32 997.00 996.72 996.32 995.96 995.56 995.12 994.68 994.16 993.60 993.20 993.00 992.96 993.00 993.00 993.12 993.20 993.32 993.44 993.52 993.68 993.80 993.96 994.16 994.36 994.52 994.72 994.88 995.00 995.12 995.28 995.44 995.60 995.72 995.76 995.84 995.88 995.80 995.72 995.60 995.56 995.44 995.52 995.64 995.80 995.92 996.00 996.12 996.20 996.32
1003.56 1003.20 1002.88 1002.48 1002.12 1001.72 1001.32 1001.00 1000.64 1000.32 1000.00 999.68 999.36 999.04 998.72 998.48 998.20 997.96 997.72 997.40 997.08 996.72 996.32 995.92 995.48 995.04 994.64 994.20 993.76 993.32 993.00 992.92 992.96 993.00 993.12 993.20 993.32 993.44 993.52 993.60 993.72 993.88 994.04 994.28 994.44 994.60 994.72 994.88 995.00 995.16 995.32 995.48 995.60 995.64 995.64 995.64 995.56 995.44 995.32 995.24 995.24 995.32 995.44 995.60 995.68 995.76 995.84 995.96 996.08
1003.60 1003.28 1002.92 1002.56 1002.16 1001.80 1001.44 1001.04 1000.72 1000.36 1000.04 999.72 999.44 999.12 998.88 998.60 998.28 998.04 997.76 997.44 997.08 996.72 996.32 995.88 995.48 995.08 994.72 994.36 994.00 993.60 993.24 993.00 993.00 993.04 993.12 993.20 993.32 993.40 993.48 993.60 993.72 993.84 993.96 994.12 994.28 994.44 994.56 994.72 994.88 995.00 995.20 995.40 995.52 995.56 995.56 995.52 995.40 995.20 995.04 995.00 995.04 995.16 995.28 995.36 995.44 995.52 995.60 995.72 995.80
1003.68 1003.32 1003.00 1002.60 1002.28 1001.88 1001.56 1001.20 1000.84 1000.48 1000.16 999.88 999.56 999.24 998.96 998.72 998.44 998.12 997.80 997.48 997.16 996.80 996.44 996.08 995.72 995.40 995.04 994.72 994.40 994.00 993.60 993.32 993.12 993.08 993.12 993.20 993.32 993.44 993.52 993.60 993.72 993.80 993.88 993.96 994.12 994.28 994.40 994.52 994.64 994.80 995.00 995.20 995.32 995.44 995.44 995.48 995.36 995.16 994.92 994.80 994.88 994.96 995.04 995.12 995.16 995.28 995.40 995.48 995.60
1003.72 1003.40 1003.04 1002.72 1002.40 1002.04 1001.68 1001.32 1001.00 1000.64 1000.32 1000.00 999.68 999.40 999.12 998.84 998.52 998.24 997.92 997.60 997.32 997.00 996.72 996.44 996.16 995.88 995.56 995.24 994.88 994.52 994.12 993.80 993.48 993.24 993.12 993.16 993.24 993.36 993.48 993.60 993.64 993.68 993.72 993.84 993.92 994.04 994.16 994.28 994.44 994.56 994.72 994.96 995.16 995.32 995.36 995.40 995.32 995.08 994.84 994.68 994.68 994.72 994.80 994.88 994.96 995.00 995.16 995.32 995.44
1003.88 1003.52 1003.16 1002.88 1002.56 1002.20 1001.88 1001.52 1001.16 1000.84 1000.48 1000.16 999.88 999.56 999.28 999.00 998.72 998.44 998.16 997.88 997.60 997.28 997.00 996.72 996.44 996.16 995.88 995.60 995.32 994.96 994.60 994.24 993.92 993.64 993.44 993.32 993.28 993.36 993.44 993.56 993.60 993.64 993.72 993.76 993.76 993.80 993.88 994.00 994.16 994.28 994.48 994.72 995.00 995.12 995.20 995.28 995.16 995.00 994.76 994.60 994.60 994.56 994.56 994.64 994.72 994.84 994.92 995.12 995.24
1004.00 1003.68 1003.36 1003.00 1002.72 1002.36 1002.00 1001.72 1001.36 1001.00 1000.68 1000.36 1000.04 999.72 999.44 999.16 998.88 998.60 998.40 998.12 997.80 997.52 997.24 996.96 996.64 996.40 996.16 995.88 995.60 995.32 995.00 994.72 994.40 994.16 993.92 993.76 993.68 993.64 993.68 993.72 993.72 993.72 993.72 993.68 993.60 993.56 993.60 993.72 993.84 994.00 994.24 994.52 994.72 994.84 994.92 995.00 995.00 994.92 994.80 994.68 994.68 994.64 994.60 994.72 994.76 994.84 994.92 995.00 995.12
1004.16 1003.84 1003.48 1003.16 1002.84 1002.52 1002.16 1001.88 1001.60 1001.24 1000.88 1000.60 1000.28 999.96 999.64 999.32 999.08 998.84 998.60 998.32 998.04 997.76 997.48 997.24 996.92 996.64 996.44 996.24 996.00 995.76 995.48 995.20 994.88 994.60 994.40 994.24 994.12 994.00 993.96 993.88 993.84 993.80 993.72 993.52 993.32 993.24 993.24 993.32 993.44 993.64 993.96 994.24 994.40 994.52 994.68 994.84 994.96 994.96 994.96 994.92 994.96 995.00 995.04 995.04 995.12 995.16 995.20 995.24 995.28
1004.28 1003.96 1003.64 1003.32 1003.00 1002.68 1002.36 1002.04 1001.76 1001.44 1001.12 1000.84 1000.48 1000.16 999.84 999.52 999.28 999.00 998.76 998.56 998.28 998.04 997.80 997.48 997.24 997.00 996.80 996.60 996.44 996.16 995.88 995.64 995.36 995.08 994.88 994.68 994.52 994.36 994.24 994.08 994.00 993.88 993.68 993.36 993.08 992.92 992.88 992.92 993.08 993.32 993.64 993.88 994.04 994.24 994.48 994.72 994.92 995.00 995.00 995.04 995.16 995.24 995.28 995.32 995.40 995.48 995.60 995.64 995.72
1004.40 1004.08 1003.76 1003.44 1003.16 1002.88 1002.56 1002.24 1002.00 1001.68 1001.36 1001.04 1000.68 1000.32 1000.00 999.72 999.48 999.24 999.00 998.76 998.56 998.28 998.04 997.76 997.56 997.36 997.16 996.96 996.76 996.52 996.28 996.00 995.76 995.52 995.32 995.12 995.00 994.80 994.60 994.44 994.28 994.04 993.76 993.44 993.16 992.88 992.80 992.84 993.00 993.16 993.40 993.60 993.84 994.12 994.40 994.64 994.88 995.00 995.08 995.16 995.28 995.36 995.48 995.60 995.64 995.76 995.88 996.00 996.00
1004.56 1004.24 1003.96 1003.64 1003.36 1003.08 1002.76 1002.44 1002.16 1001.88 1001.56 1001.24 1000.88 1000.56 1000.24 1000.00 999.76 999.52 999.24 999.00 998.72 998.52 998.28 998.00 997.88 997.68 997.48 997.28 997.08 996.88 996.64 996.40 996.16 995.92 995.72 995.60 995.40 995.16 994.88 994.72 994.52 994.28 994.04 993.72 993.48 993.28 993.16 993.12 993.16 993.24 993.36 993.52 993.80 994.08 994.32 994.56 994.76 994.96 995.12 995.28 995.40 995.56 995.72 995.88 995.92 996.00 996.16 996.28 996.32
1004.76 1004.44 1004.16 1003.84 1003.56 1003.28 1003.00 1002.68 1002.36 1002.04 1001.72 1001.44 1001.12 1000.84 1000.56 1000.28 1000.00 999.76 999.48 999.20 998.96 998.72 998.48 998.28 998.12 997.92 997.72 997.52 997.36 997.20 997.00 996.72 996.52 996.32 996.16 995.92 995.72 995.44 995.20 995.00 994.88 994.68 994.44 994.24 994.00 993.80 993.64 993.60 993.52 993.48 993.48 993.60 993.88 994.08 994.24 994.44 994.72 995.00 995.28 995.44 995.60 995.72 995.92 996.12 996.24 996.36 996.48 996.60 996.68
Thickness
5441 5442 5443 5444 5446 5448 5451 5454 5456 5459 5461 5463 5466 5469 5471 5474 5477 5480 5484 5487 5490 5493 5496 5499 5501 5503 5505 5506 5507 5508 5509 5511 5513 5514 5516 5518 5519 5521 5523 5525 5526 5528 5530 5532 5534 5536 5539 5541 5543 5545 5549 5552 5556 5560 5564 5567 5570 5573 5575 5578 5581 5584 5586 5588 5591 5592 5594 5595 5596
5437 5438 5438 5440 5442 5444 5447 5450 5453 5455 5457 5459 5462 5464 5467 5469 5472 5475 5479 5482 5484 5487 5490 5493 5495 5497 5499 5501 5502 5503 5505 5506 5508 5510 5512 5514 5515 5517 5519 5519 5522 5523 5525 5528 5530 5532 5534 5536 5538 5542 5545 5548 5552 5556 5559 5563 5566 5569 5572 5575 5578 5581 5583 5586 5588 5590 5592 5593 5594
5434 5434 5435 5437 5438 5441 5444 5447 5450 5452 5453 5455 5457 5459 5462 5465 5469 5472 5474 5477 5479 5481 5485 5487 5490 5492 5494 5495 5497 5499 5500 5502 5504 5505 5507 5509 5511 5512 5514 5515 5517 5519 5521 5523 5524 5527 5529 5531 5533 5536 5540 5544 5548 5552 5556 5560 5562 5565 5569 5571 5575 5577 5580 5582 5585 5587 5589 5590 5591
5430 5431 5432 5434 5436 5438 5441 5443 5446 5448 5449 5451 5453 5455 5458 5461 5463 5467 5469 5472 5474 5476 5479 5481 5484 5487 5489 5491 5493 5494 5496 5497 5499 5501 5502 5505 5507 5508 5509 5511 5513 5515 5517 5519 5521 5522 5525 5526 5529 5532 5535 5539 5543 5547 5551 5556 5559 5562 5565 5568 5571 5574 5577 5580 5582 5584 5586 5586 5588
5428 5428 5429 5431 5433 5436 5437 5440 5442 5444 5446 5447 5449 5452 5454 5457 5460 5462 5466 5468 5470 5473 5475 5477 5479 5482 5484 5486 5488 5489 5491 5493 5494 5496 5498 5501 5502 5504 5506 5507 5509 5511 5513 5515 5517 5518 5521 5522 5524 5527 5531 5535 5538 5542 5546 5550 5554 5558 5561 5565 5568 5571 5574 5576 5579 5580 5582 5583 5585
5425 5426 5427 5428 5430 5433 5435 5437 5439 5441 5443 5444 5447 5450 5452 5454 5456 5459 5462 5465 5468 5470 5472 5473 5475 5478 5480 5481 5483 5485 5487 5488 5490 5492 5494 5496 5498 5500 5502 5504 5505 5507 5509 5511 5513 5515 5516 5518 5520 5523 5527 5530 5534 5537 5541 5545 5549 5553 5557 5562 5565 5567 5570 5572 5575 5578 5579 5580 5582
5423 5424 5425 5427 5429 5431 5433 5435 5437 5439 5441 5443 5446 5448 5451 5453 5455 5457 5459 5462 5464 5466 5468 5470 5472 5474 5476 5477 5479 5481 5483 5485 5486 5489 5490 5493 5495 5497 5499 5500 5502 5504 5506 5508 5509 5511 5512 5514 5517 5520 5523 5526 5530 5534 5538 5541 5544 5548 5553 5557 5561 5564 5566 5569 5572 5574 5576 5578 5579
5420 5421 5423 5426 5427 5429 5432 5433 5435 5437 5440 5442 5445 5448 5450 5451 5453 5456 5457 5459 5461 5463 5465 5467 5469 5471 5472 5474 5476 5478 5480 5482 5484 5486 5488 5490 5492 5494 5495 5497 5499 5501 5503 5504 5506 5508 5509 5511 5513 5517 5520 5523 5527 5531 5534 5537 5540 5544 5548 5552 5556 5560 5563 5566 5569 5571 5573 5574 5576
5418 5420 5422 5424 5426 5428 5430 5432 5435 5437 5440 5442 5444 5446 5448 5449 5451 5453 5455 5457 5459 5460 5462 5464 5465 5467 5468 5471 5473 5476 5477 5479 5482 5483 5485 5487 5489 5491 5493 5495 5496 5498 5500 5502 5503 5504 5506 5508 5510 5514 5517 5521 5524 5527 5530 5533 5536 5539 5543 5547 5551 5555 5558 5562 5565 5569 5570 5572 5573
5417 5419 5421 5423 5425 5427 5429 5432 5434 5437 5439 5441 5444 5445 5446 5448 5450 5451 5454 5455 5457 5458 5460 5461 5463 5464 5466 5468 5470 5473 5475 5477 5479 5481 5483 5485 5487 5489 5490 5492 5494 5495 5497 5499 5500 5501 5503 5505 5508 5512 5515 5518 5521 5524 5527 5529 5531 5535 5538 5542 5547 5550 5554 5558 5561 5565 5568 5569 5571
5416 5417 5420 5422 5424 5426 5428 5431 5434 5436 5439 5441 5443 5444 5446 5447 5449 5451 5453 5454 5456 5458 5460 5461 5461 5462 5465 5467 5469 5471 5473 5475 5477 5479 5481 5483 5485 5487 5488 5490 5492 5493 5495 5496 5497 5498 5500 5503 5506 5510 5513 5516 5518 5520 5523 5526 5528 5531 5534 5538 5542 5546 5549 5553 5557 5561 5565 5566 5568
5414 5416 5418 5421 5423 5425 5428 5431 5434 5436 5439 5441 5443 5444 5446 5447 5449 5450 5452 5454 5456 5458 5459 5460 5461 5462 5464 5466 5468 5470 5472 5474 5475 5477 5479 5482 5484 5485 5486 5488 5490 5491 5493 5494 5495 5496 5498 5501 5505 5508 5510 5513 5515 5517 5519 5522 5525 5527 5531 5534 5538 5541 5545 5549 5553 5558 5561 5563 5565
5412 5415 5418 5420 5422 5425 5428 5430 5433 5436 5438 5440 5442 5443 5445 5447 5448 5450 5451 5454 5456 5457 5459 5460 5460 5462 5464 5466 5468 5470 5471 5473 5475 5477 5478 5481 5482 5484 5485 5487 5488 5490 5491 5492 5493 5494 5497 5500 5503 5506 5508 5510 5512 5515 5517 5519 5522 5524 5528 5531 5534 5538 5542 5546 5549 5553 5557 5560 5562
5411 5414 5417 5420 5422 5425 5427 5430 5433 5435 5438 5440 5442 5444 5445 5447 5448 5449 5451 5453 5455 5457 5458 5459 5460 5462 5464 5466 5467 5469 5471 5473 5475 5477 5479 5480 5482 5483 5485 5486 5488 5489 5489 5491 5492 5493 5495 5499 5501 5504 5506 5508 5510 5512 5514 5517 5519 5521 5525 5528 5531 5535 5538 5542 5545 5549 5553 5556 5559
5409 5413 5416 5419 5421 5424 5427 5430 5433 5435 5438 5440 5442 5443 5444 5446 5447 5448 5450 5452 5454 5456 5457 5459 5460 5462 5464 5465 5467 5469 5470 5472 5474 5476 5479 5481 5482 5484 5485 5486 5487 5488 5489 5490 5490 5492 5494 5497 5499 5502 5504 5506 5508 5510 5512 5514 5516 5519 5522 5526 5529 5533 5536 5539 5543 5545 5549 5552 5556
5408 5411 5414 5418 5421 5424 5427 5429 5432 5435 5438 5440 5441 5442 5444 5446 5446 5448 5449 5451 5453 5455 5457 5459 5461 5463 5464 5465 5466 5468 5469 5472 5474 5476 5479 5481 5483 5484 5485 5486 5487 5488 5489 5489 5490 5492 5494 5495 5497 5499 5501 5503 5506 5508 5509 5512 5514 5517 5520 5523 5527 5530 5533 5536 5539 5542 5545 5549 5552
5406 5410 5414 5417 5421 5424 5426 5430 5432 5435 5437 5440 5441 5442 5443 5445 5446 5448 5449 5451 5453 5455 5457 5459 5461 5462 5463 5466 5466 5468 5469 5472 5474 5477 5479 5482 5484 5485 5486 5487 5488 5488 5489 5489 5490 5491 5492 5494 5496 5497 5499 5502 5503 5505 5508 5510 5512 5515 5518 5521 5525 5528 5530 5533 5536 5539 5543 5546 5549
5405 5409 5413 5417 5420 5424 5426 5430 5432 5435 5437 5439 5440 5442 5443 5445 5446 5448 5450 5452 5453 5455 5458 5460 5461 5462 5464 5466 5467 5468 5470 5472 5475 5478 5480 5483 5485 5486 5487 5488 5488 5489 5489 5489 5490 5491 5492 5493 5494 5496 5497 5499 5501 5503 5506 5508 5510 5514 5516 5518 5522 5525 5528 5531 5534 5537 5541 5544 5547
5405 5409 5413 5417 5421 5424 5427 5429 5433 5435 5437 5439 5440 5442 5444 5446 5447 5449 5451 5453 5454 5456 5458 5459 5461 5463 5464 5465 5467 5468 5470 5472 5475 5477 5480 5483 5485 5487 5488 5489 5489 5489 5489 5489 5490 5491 5491 5492 5493 5494 5496 5497 5500 5502 5504 5506 5509 5511 5514 5517 5520 5523 5525 5529 5532 5535 5538 5542 5545
5405 5409 5413 5417 5421 5424 5427 5430 5433 5436 5438 5439 5441 5443 5444 5446 5448 5450 5452 5454 5455 5457 5458 5460 5462 5464 5465 5466 5468 5469 5470 5472 5474 5476 5479 5481 5483 5485 5487 5488 5489 5489 5489 5490 5489 5490 5491 5492 5492 5493 5495 5496 5498 5500 5503 5505 5508 5510 5512 5516 5518 5521 5524 5527 5530 5533 5536 5540 5543
5405 5410 5413 5417 5421 5424 5428 5431 5434 5436 5438 5439 5442 5443 5445 5447 5449 5450 5453 5455 5456 5458 5460 5462 5463 5465 5466 5467 5468 5470 5471 5473 5474 5476 5478 5479 5481 5483 5485 5486 5487 5488 5488 5489 5489 5489 5490 5491 5491 5493 5494 5495 5497 5499 5501 5504 5506 5509 5511 5514 5517 5520 5523 5526 5529 5532 5535 5538 5542
5405 5410 5414 5417 5421 5425 5428 5431 5434 5436 5438 5440 5442 5444 5445 5448 5451 5452 5455 5456 5458 5459 5461 5463 5464 5465 5467 5468 5469 5471 5473 5474 5475 5476 5478 5479 5480 5481 5482 5483 5484 5485 5486 5487 5488 5489 5489 5490 5491 5492 5493 5495 5496 5498 5500 5503 5505 5508 5510 5513 5515 5519 5522 5525 5528 5531 5534 5537 5540
5406 5410 5414 5418 5422 5425 5429 5432 5434 5436 5439 5440 5443 5445 5447 5449 5452 5453 5456 5457 5459 5461 5462 5463 5465 5467 5468 5470 5471 5473 5474 5476 5476 5477 5478 5478 5478 5478 5478 5479 5479 5481 5482 5485 5486 5487 5488 5489 5490 5491 5493 5494 5496 5498 5500 5502 5504 5507 5509 5512 5515 5518 5521 5524 5527 5531 5534 5537 5540
5406 5410 5415 5418 5422 5426 5429 5432 5434 5436 5439 5442 5444 5446 5448 5450 5452 5454 5456 5458 5460 5461 5463 5465 5467 5469 5471 5472 5474 5475 5476 5477 5477 5477 5477 5476 5475 5475 5475 5475 5475 5477 5479 5481 5484 5485 5487 5488 5489 5491 5492 5494 5496 5498 5500 5502 5504 5506 5510 5511 5515 5517 5521 5524 5528 5530 5534 5537 5539
5407 5411 5415 5419 5422 5426 5429 5432 5434 5437 5439 5442 5444 5446 5448 5450 5452 5455 5457 5459 5461 5464 5466 5468 5470 5471 5473 5474 5476 5477 5479 5478 5477 5476 5475 5474 5473 5472 5471 5470 5471 5472 5474 5477 5480 5483 5485 5487 5489 5491 5492 5494 5495 5497 5500 5502 5505 5507 5509 5512 5515 5518 5521 5525 5528 5531 5534 5536 5539
5408 5411 5415 5419 5422 5425 5428 5431 5434 5437 5440 5442 5444 5447 5449 5451 5453 5456 5457 5460 5463 5465 5467 5468 5470 5471 5473 5475 5479 5481 5481 5480 5478 5476 5473 5472 5470 5468 5466 5466 5466 5467 5470 5473 5477 5479 5483 5486 5488 5490 5491 5494 5495 5498 5499 5502 5505 5507 5510 5513 5516 5519 5522 5526 5529 5531 5534 5536 5539
5408 5412 5415 5419 5422 5425 5428 5431 5435 5438 5440 5443 5445 5447 5449 5451 5454 5456 5458 5460 5463 5466 5468 5469 5470 5470 5474 5478 5481 5483 5482 5480 5477 5475 5472 5469 5466 5463 5461 5460 5461 5462 5466 5469 5472 5476 5481 5484 5487 5489 5491 5493 5495 5497 5500 5503 5505 5508 5511 5514 5518 5521 5523 5526 5529 5531 5534 5537 5539
5409 5412 5416 5419 5422 5425 5428 5432 5435 5437 5440 5443 5445 5446 5449 5451 5454 5456 5459 5461 5463 5465 5467 5468 5469 5471 5475 5480 5481 5482 5481 5479 5476 5473 5470 5466 5462 5459 5456 5455 5456 5459 5461 5465 5470 5474 5478 5482 5485 5488 5491 5493 5495 5497 5499 5502 5505 5509 5513 5516 5520 5523 5525 5527 5529 5531 5534 5537 5539
5409 5412 5415 5419 5422 5425 5428 5432 5435 5438 5440 5443 5445 5447 5449 5452 5454 5456 5458 5460 5462 5465 5466 5468 5469 5472 5475 5478 5480 5481 5480 5478 5475 5472 5467 5463 5460 5456 5454 5452 5453 5455 5458 5462 5467 5472 5477 5481 5485 5488 5491 5493 5495 5498 5500 5503 5506 5510 5514 5518 5521 5525 5526 5528 5530 5532 5534 5537 5539
5409 5412 5415 5418 5422 5425 5428 5432 5435 5438 5440 5443 5445 5447 5450 5452 5455 5456 5458 5460 5462 5464 5466 5467 5469 5472 5474 5477 5479 5480 5480 5478 5474 5471 5467 5463 5459 5455 5453 5452 5452 5454 5457 5462 5467 5472 5477 5482 5485 5489 5491 5493 5496 5499 5501 5504 5508 5512 5516 5519 5523 5525 5527 5529 5531 5533 5535 5537 5540
5409 5412 5414 5418 5421 5424 5429 5431 5435 5438 5440 5443 5445 5448 5450 5453 5454 5456 5458 5460 5463 5465 5467 5468 5469 5472 5474 5476 5478 5480 5479 5478 5475 5471 5468 5464 5461 5457 5454 5453 5454 5456 5459 5463 5468 5474 5478 5483 5486 5489 5491 5494 5496 5499 5502 5506 5509 5514 5518 5521 5523 5525 5527 5529 5531 5533 5536 5538 5540
5408 5411 5415 5417 5421 5424 5428 5431 5435 5437 5440 5442 5445 5447 5450 5452 5454 5455 5458 5460 5462 5464 5467 5468 5470 5472 5473 5475 5476 5478 5479 5479 5476 5473 5470 5467 5464 5461 5458 5457 5458 5459 5463 5467 5472 5477 5481 5485 5488 5491 5493 5494 5497 5499 5503 5506 5510 5514 5518 5522 5523 5525 5527 5530 5532 5534 5537 5539 5542
5408 5411 5414 5417 5421 5424 5428 5431 5434 5436 5439 5442 5444 5446 5448 5451 5453 5455 5457 5459 5461 5463 5465 5466 5469 5472 5474 5474 5475 5476 5478 5478 5478 5476 5474 5471 5468 5466 5464 5463 5464 5465 5468 5472 5476 5481 5484 5488 5491 5494 5495 5497 5498 5500 5503 5506 5509 5514 5519 5522 5524 5526 5528 5531 5533 5535 5538 5540 5542
5408 5411 5414 5417 5420 5423 5427 5430 5432 5435 5438 5441 5443 5445 5447 5449 5451 5454 5456 5458 5460 5461 5463 5465 5466 5469 5472 5475 5475 5477 5478 5478 5478 5478 5478 5476 5474 5472 5471 5470 5471 5473 5475 5478 5482 5485 5489 5492 5494 5497 5498 5499 5500 5502 5504 5506 5509 5514 5519 5523 5525 5528 5530 5533 5535 5537 5539 5541 5543
5408 5411 5414 5417 5419 5423 5426 5428 5431 5434 5436 5439 5442 5444 5446 5448 5450 5452 5455 5457 5458 5460 5462 5463 5465 5466 5468 5471 5474 5476 5477 5478 5480 5480 5480 5480 5479 5477 5476 5476 5477 5479 5480 5483 5487 5490 5492 5495 5498 5500 5501 5502 5503 5504 5506 5508 5511 5515 5519 5523 5527 5530 5533 5535 5537 5539 5540 5542 5544
5408 5411 5414 5416 5419 5422 5424 5427 5430 5433 5435 5437 5440 5443 5445 5447 5449 5451 5453 5454 5456 5458 5460 5462 5463 5465 5466 5468 5469 5471 5474 5476 5478 5480 5481 5481 5480 5480 5480 5480 5482 5483 5485 5488 5491 5494 5497 5499 5501 5503 5505 5505 5506 5507 5508 5510 5512 5515 5519 5523 5526 5530 5534 5535 5537 5538 5540 5543 5545
5409 5411 5414 5416 5419 5421 5424 5426 5429 5431 5434 5436 5439 5441 5444 5446 5448 5450 5452 5453 5455 5457 5459 5461 5463 5464 5465 5466 5467 5469 5471 5473 5475 5478 5480 5482 5482 5482 5483 5484 5485 5487 5489 5493 5496 5500 5502 5504 5506 5507 5508 5508 5509 5510 5511 5512 5514 5516 5519 5521 5525 5527 5530 5531 5534 5536 5538 5541 5544
5408 5411 5413 5416 5418 5420 5423 5425 5428 5430 5432 5435 5438 5440 5443 5445 5447 5449 5451 5452 5454 5455 5458 5460 5462 5463 5464 5465 5466 5468 5470 5472 5474 5476 5478 5480 5482 5483 5485 5487 5489 5491 5494 5498 5502 5505 5508 5510 5511 5512 5512 5512 5513 5514 5514 5514 5515 5517 5520 5523 5526 5526 5528 5530 5532 5533 5536 5538 5540
5408 5411 5413 5416 5418 5419 5422 5424 5427 5429 5431 5434 5436 5439 5442 5444 5446 5447 5449 5451 5453 5455 5456 5458 5460 5462 5464 5465 5466 5469 5471 5473 5474 5476 5477 5479 5480 5482 5485 5488 5491 5494 5498 5502 5505 5509 5511 5514 5515 5515 5516 5517 5517 5517 5517 5518 5520 5522 5525 5526 5526 5526 5527 5529 5530 5532 5534 5535 5538
5408 5410 5413 5415 5417 5419 5421 5423 5426 5427 5430 5433 5435 5438 5440 5443 5444 5446 5448 5450 5452 5454 5456 5458 5460 5463 5464 5465 5466 5468 5471 5473 5475 5476 5477 5478 5481 5483 5485 5488 5491 5494 5498 5502 5505 5508 5511 5514 5515 5517 5518 5519 5519 5520 5521 5523 5524 5524 5526 5526 5525 5525 5525 5526 5528 5530 5531 5532 5534
5407 5409 5411 5414 5416 5418 5420 5422 5424 5427 5429 5432 5434 5436 5439 5441 5443 5445 5447 5449 5451 5453 5455 5457 5459 5461 5463 5465 5466 5468 5470 5473 5475 5477 5479 5480 5482 5484 5486 5488 5491 5494 5497 5501 5504 5507 5510 5512 5515 5517 5519 5519 5521 5522 5524 5524 5524 5523 5522 5523 5522 5523 5523 5524 5525 5526 5527 5528 5530